Wind_Speed
2 2 2 2 1 0 1 1 1 2 2 2 3 3 3 2 2 3 2 3 3 3 3 3 3 4 3 3 3 3 3 4 4 4 4 4 3 4 4 5 5 5 6
2 2 2 2 2 1 1 1 1 2 3 3 3 4 4 3 3 3 3 3 3 4 4 4 5 4 4 4 4 3 3 4 4 4 3 4 4 4 5 5 6 6 7
2 2 2 1 2 2 2 2 2 2 3 4 4 4 5 4 4 4 4 4 4 4 5 5 5 5 5 4 5 5 4 4 4 4 4 4 5 5 6 6 6 7 7
1 1 1 2 2 3 3 3 2 2 3 4 4 4 5 5 5 5 5 5 5 5 5 6 6 6 6 5 6 6 5 5 5 5 5 5 5 6 6 6 6 7 7
1 1 1 2 2 4 4 3 2 3 4 4 5 5 5 5 6 6 6 6 6 6 6 6 7 6 6 6 6 6 6 6 6 6 6 7 7 6 7 6 7 7 7
1 2 2 2 3 3 4 4 3 3 4 5 5 5 6 6 6 6 6 6 6 6 7 7 7 7 7 7 7 7 7 7 7 7 8 8 8 8 8 8 7 8 8
2 2 3 3 4 4 4 4 3 4 4 5 6 6 6 6 6 6 7 7 7 7 8 8 8 8 8 8 8 8 8 8 9 9 9 9 9 9 9 9 9 9 9
3 3 4 5 5 4 4 4 5 5 5 6 6 6 6 7 6 7 7 7 8 8 8 9 9 9 9 9 9 9 9 9 9 10 10 10 10 10 10 10 10 11 11
4 5 5 5 6 6 5 5 6 6 6 6 7 7 7 8 8 8 8 9 9 9 10 10 10 10 10 10 10 11 10 10 10 11 11 12 12 11 11 12 12 12 13
5 6 6 7 7 8 8 7 7 7 8 8 8 8 8 8 9 10 10 10 11 11 12 12 12 12 12 12 12 12 11 11 11 12 13 13 13 13 13 14 14 14 14
6 6 7 8 9 9 10 9 9 9 9 9 9 10 10 10 10 11 11 12 12 13 13 14 14 13 13 13 13 14 14 13 14 13 14 15 15 15 15 15 15 15 16
8 8 9 10 10 10 10 11 11 11 11 10 11 11 12 12 12 12 12 13 14 15 15 15 16 15 15 15 15 16 16 16 16 16 16 16 16 16 16 16 16 16 17
11 11 12 12 12 12 13 13 14 13 13 13 13 13 14 14 15 15 15 15 16 16 16 16 17 17 17 17 17 17 18 18 18 18 18 18 18 18 17 17 17 18 18
13 13 14 15 15 15 15 16 16 15 14 15 15 15 16 16 17 17 18 18 17 18 18 18 18 19 19 19 18 19 19 20 20 20 20 20 20 19 20 20 20 20 20
16 16 17 17 17 18 18 18 17 17 17 17 17 18 18 18 18 19 20 19 19 19 19 19 19 19 20 20 20 20 20 21 21 21 22 22 22 22 22 22 22 23 22
18 18 19 19 19 20 20 20 20 20 20 19 20 20 20 20 20 20 20 20 20 21 20 21 21 21 21 21 21 21 22 22 23 23 24 24 24 24 24 24 24 24 24
20 20 21 22 22 22 23 22 22 21 22 22 22 23 23 22 22 22 22 22 22 22 22 23 23 23 23 23 23 23 23 23 23 24 24 24 25 25 25 25 26 25 26
23 24 24 25 25 24 25 25 24 24 24 24 25 25 25 25 24 24 24 24 24 24 24 25 26 26 25 25 25 25 25 25 25 25 25 25 25 25 25 26 26 26 27
26 27 27 27 27 27 27 27 27 27 27 27 27 28 27 28 27 26 26 26 26 26 26 26 26 26 26 26 26 26 26 26 27 27 26 26 26 27 27 27 27 27 28
28 28 28 28 28 28 29 29 29 29 29 29 29 29 28 29 28 28 28 27 27 27 27 27 27 27 27 26 27 27 27 28 28 29 28 28 28 28 28 29 29 29 29
29 30 30 31 31 31 31 31 31 30 30 30 30 30 30 30 30 29 29 28 28 28 28 28 28 29 29 29 28 28 28 29 29 29 30 30 30 30 30 30 31 31 31
31 32 31 32 33 34 34 33 32 32 31 31 31 31 32 32 32 31 31 31 30 30 30 30 29 30 30 30 30 30 30 30 30 30 30 30 30 31 31 31 31 32 32
33 33 33 33 34 34 34 34 34 33 33 33 32 33 33 33 33 33 32 32 32 32 32 31 31 31 31 32 32 32 32 32 32 32 31 31 32 32 32 32 32 32 32
34 34 34 35 35 35 35 36 36 36 36 35 35 35 35 34 34 34 34 33 32 33 33 33 32 32 32 33 33 33 33 33 33 34 33 33 33 33 33 33 32 32 32
36 35 36 36 36 36 37 37 38 38 38 38 37 35 34 34 33 34 34 33 34 35 35 34 33 32 32 33 34 34 34 34 34 34 34 34 34 33 33 33 33 32 32
36 36 36 37 37 37 38 39 39 39 39 39 39 37 36 36 36 35 34 34 34 35 35 34 33 33 33 34 35 35 35 35 35 35 35 35 34 33 32 33 33 32 32
Wind_Direction
62 72 64 70 65 23 324 336 335 329 325 325 330 337 335 333 331 324 308 300 300 306 308 305 303 303 303 303 308 318 321 320 317 312 301 303 308 308 307 309 313 314 313
60 73 95 69 46 16 319 304 315 313 321 318 313 325 326 322 311 315 310 300 298 301 304 305 303 298 299 294 294 293 303 313 318 317 305 297 302 308 305 306 309 308 309
78 73 85 59 30 5 337 298 287 283 307 317 323 328 324 318 306 304 306 301 297 299 301 303 302 296 294 292 295 295 295 300 305 309 307 299 294 299 301 307 310 307 305
85 68 50 17 356 335 326 317 305 301 313 317 322 324 316 318 315 306 303 304 305 300 296 297 299 295 291 289 293 291 292 294 294 297 301 301 296 297 302 306 310 309 304
355 294 327 335 338 338 336 327 307 305 307 308 309 310 306 301 305 306 305 303 302 301 299 298 299 295 292 289 291 291 287 287 287 288 291 294 298 298 300 301 303 305 306
284 281 293 303 324 333 338 323 304 307 306 309 308 305 303 298 298 302 304 302 300 296 297 297 296 295 290 286 286 286 286 285 288 288 290 294 296 296 295 296 297 303 303
300 292 296 297 309 313 318 320 314 314 312 305 301 303 305 305 301 299 298 299 302 300 298 295 291 293 291 287 284 282 284 285 288 289 289 290 294 293 291 292 293 297 299
287 291 298 300 300 306 310 312 309 303 305 306 304 303 305 305 309 308 302 301 303 303 304 305 299 294 289 282 282 280 282 284 286 285 286 287 287 287 288 289 291 293 295
277 282 283 286 289 291 300 306 306 295 291 293 294 295 298 298 300 301 299 298 297 297 297 296 296 294 286 280 277 277 281 285 286 284 284 284 283 281 282 282 285 290 293
275 277 282 285 287 288 287 290 290 292 289 287 287 290 290 293 292 293 292 292 293 295 294 293 290 288 285 282 281 278 279 283 285 283 282 282 280 279 279 281 284 287 291
281 283 287 289 288 288 287 287 293 292 288 282 283 287 287 287 289 289 288 288 290 292 292 293 289 288 288 284 284 283 281 282 283 283 282 281 280 280 280 282 283 285 287
286 287 289 288 287 288 291 292 294 293 291 286 282 282 284 284 284 285 287 288 291 292 291 289 285 286 285 283 283 284 283 283 283 283 284 282 283 281 282 285 285 285 287
287 288 290 292 288 286 287 289 291 290 292 293 288 285 283 281 281 283 285 288 289 290 289 288 284 282 282 281 282 283 282 281 280 280 281 283 283 282 283 286 285 285 286
285 286 289 290 290 285 285 286 287 284 286 288 290 289 285 284 283 283 285 287 288 288 289 287 285 281 279 278 280 281 280 280 279 279 281 281 282 283 283 283 285 285 286
286 284 285 286 288 286 286 285 283 281 282 285 286 288 289 288 288 285 285 285 285 287 288 286 283 283 280 278 280 280 280 279 280 280 281 281 281 281 282 283 283 283 285
287 285 284 284 283 284 284 285 282 279 279 281 283 284 285 289 288 289 288 287 286 285 284 282 281 280 279 279 279 279 280 280 282 282 281 281 280 280 281 280 283 283 283
287 285 284 283 281 279 279 283 283 279 278 279 281 283 284 286 285 286 286 286 286 284 282 282 280 279 278 278 280 280 280 280 280 282 282 280 279 279 279 280 281 282 282
285 285 284 283 283 280 278 279 280 279 279 281 282 284 286 285 286 285 283 282 283 282 281 280 280 280 278 278 279 279 280 281 280 281 281 282 279 279 279 281 282 282 283
286 285 282 282 282 282 280 279 278 278 278 280 281 282 282 283 282 281 281 281 281 280 280 279 279 279 278 278 279 279 279 280 281 281 281 282 281 279 279 281 282 282 282
285 283 281 281 281 280 280 279 277 277 278 279 281 281 282 281 281 280 280 281 281 279 278 279 279 279 278 279 280 279 279 280 280 281 281 281 281 279 279 280 282 282 282
285 283 281 280 280 280 279 280 278 278 278 278 280 280 282 282 280 280 280 280 279 278 278 278 278 278 279 279 280 280 281 281 281 281 280 279 280 279 280 280 282 281 282
284 283 282 281 280 280 279 279 278 279 279 279 279 279 281 281 280 280 280 278 277 278 279 278 277 277 278 279 280 280 280 279 280 280 280 280 281 281 281 282 282 281 281
285 283 282 281 280 279 278 277 277 278 278 279 280 281 282 281 279 278 279 279 278 278 278 278 278 277 277 278 279 279 279 279 278 278 278 279 280 281 282 282 281 281 281
284 284 283 282 280 279 278 276 276 277 279 280 280 281 279 279 279 277 278 278 278 277 277 277 276 276 277 277 279 279 279 279 278 277 276 277 278 279 280 282 282 281 282
284 283 282 280 280 279 278 276 275 276 277 278 279 280 279 278 279 277 276 277 277 276 277 277 275 275 276 278 279 278 279 279 279 277 277 277 277 279 280 282 281 281 282
285 284 284 282 280 280 279 277 276 276 277 277 277 277 278 277 277 277 275 275 275 276 276 276 275 276 277 280 280 279 279 280 279 278 278 277 278 279 279 280 280 280 281
Height
5904 5904 5905 5905 5905 5905 5905 5905 5905 5905 5905 5905 5905 5905 5904 5904 5904 5904 5904 5904 5904 5904 5903 5903 5903 5903 5902 5902 5902 5901 5901 5900 5900 5899 5899 5899 5898 5898 5898 5897 5897 5896 5896
5904 5904 5905 5905 5905 5905 5905 5905 5905 5905 5905 5905 5905 5905 5904 5904 5903 5904 5904 5903 5903 5903 5902 5902 5902 5902 5901 5901 5901 5900 5900 5899 5899 5898 5898 5898 5897 5897 5897 5896 5896 5895 5894
5905 5905 5905 5905 5905 5905 5904 5904 5904 5905 5905 5905 5905 5904 5904 5903 5903 5903 5903 5903 5902 5902 5902 5901 5901 5901 5900 5900 5900 5899 5899 5898 5898 5897 5897 5897 5896 5896 5895 5895 5894 5894 5893
5905 5906 5906 5905 5905 5904 5904 5904 5904 5904 5904 5904 5904 5904 5904 5903 5903 5902 5902 5902 5901 5901 5901 5900 5900 5900 5899 5899 5898 5898 5898 5897 5897 5896 5896 5895 5895 5895 5894 5894 5893 5892 5892
5905 5906 5906 5906 5905 5905 5904 5904 5904 5904 5904 5904 5903 5903 5903 5903 5902 5901 5901 5901 5900 5900 5899 5899 5899 5899 5898 5898 5897 5897 5896 5896 5896 5895 5895 5894 5894 5893 5893 5892 5891 5891 5890
5905 5905 5905 5905 5905 5905 5904 5903 5903 5903 5903 5903 5902 5902 5902 5901 5901 5900 5900 5899 5899 5898 5898 5898 5897 5897 5897 5896 5896 5895 5895 5894 5894 5894 5893 5893 5892 5891 5891 5890 5890 5889 5888
5905 5905 5905 5905 5905 5904 5904 5903 5903 5902 5902 5901 5901 5901 5901 5900 5899 5899 5898 5898 5897 5897 5896 5896 5895 5895 5895 5894 5894 5893 5893 5893 5892 5892 5892 5891 5890 5890 5889 5888 5888 5887 5886
5904 5904 5904 5904 5904 5904 5903 5902 5902 5901 5900 5900 5900 5899 5899 5899 5898 5897 5896 5896 5896 5895 5895 5894 5893 5893 5892 5892 5892 5891 5891 5891 5890 5890 5889 5889 5888 5888 5887 5886 5886 5885 5884
5904 5903 5903 5903 5903 5902 5902 5901 5900 5899 5899 5898 5898 5897 5896 5896 5895 5895 5894 5894 5893 5893 5892 5892 5891 5891 5890 5889 5889 5889 5889 5888 5888 5887 5887 5886 5885 5885 5884 5884 5883 5882 5881
5903 5902 5902 5902 5901 5901 5900 5899 5898 5897 5897 5896 5896 5895 5894 5893 5893 5893 5892 5892 5891 5890 5890 5889 5889 5888 5887 5887 5886 5886 5886 5885 5885 5884 5883 5883 5882 5881 5881 5880 5879 5878 5877
5901 5901 5900 5900 5900 5899 5898 5897 5896 5895 5894 5894 5893 5893 5892 5891 5891 5890 5890 5889 5888 5887 5887 5886 5885 5885 5884 5884 5883 5883 5882 5882 5881 5881 5880 5879 5878 5877 5877 5876 5875 5875 5874
5900 5899 5899 5898 5897 5897 5896 5895 5894 5893 5892 5891 5890 5890 5889 5889 5888 5887 5887 5886 5885 5884 5883 5883 5882 5881 5881 5880 5880 5879 5878 5878 5878 5877 5876 5875 5874 5874 5873 5872 5871 5870 5869
5898 5897 5896 5896 5895 5894 5893 5892 5891 5890 5889 5888 5887 5887 5886 5885 5885 5884 5883 5882 5881 5880 5879 5879 5878 5877 5877 5876 5875 5875 5874 5873 5873 5872 5872 5871 5870 5869 5868 5868 5867 5866 5865
5895 5894 5894 5893 5892 5891 5890 5889 5888 5887 5886 5885 5884 5883 5882 5882 5881 5880 5879 5878 5877 5876 5875 5874 5873 5873 5872 5871 5871 5870 5869 5868 5868 5867 5867 5866 5865 5865 5864 5863 5862 5861 5860
5892 5891 5890 5889 5888 5887 5886 5885 5884 5883 5882 5881 5880 5879 5878 5877 5876 5875 5874 5873 5873 5872 5871 5870 5869 5868 5867 5866 5865 5865 5864 5863 5863 5862 5861 5860 5860 5859 5859 5858 5857 5856 5855
5888 5887 5886 5885 5883 5882 5882 5881 5880 5878 5878 5877 5876 5874 5873 5872 5871 5870 5869 5868 5867 5867 5866 5865 5864 5863 5862 5861 5860 5859 5858 5858 5857 5856 5855 5854 5854 5853 5853 5852 5851 5850 5849
5883 5882 5881 5880 5878 5877 5876 5875 5874 5873 5872 5871 5870 5869 5868 5867 5866 5865 5863 5862 5861 5861 5860 5859 5858 5857 5856 5855 5855 5854 5853 5852 5851 5850 5849 5848 5848 5847 5846 5846 5845 5844 5843
5878 5876 5875 5874 5873 5872 5871 5870 5869 5868 5866 5865 5864 5863 5862 5861 5859 5858 5857 5856 5855 5854 5853 5853 5852 5851 5850 5849 5848 5847 5846 5845 5844 5844 5843 5842 5841 5840 5839 5839 5838 5837 5836
5871 5870 5869 5868 5867 5865 5864 5863 5862 5861 5860 5859 5858 5856 5855 5854 5852 5851 5850 5848 5847 5847 5846 5845 5844 5844 5843 5842 5841 5840 5839 5839 5838 5837 5835 5834 5834 5833 5832 5831 5830 5829 5828
5864 5863 5862 5861 5859 5858 5857 5856 5855 5854 5853 5852 5851 5849 5848 5847 5845 5844 5843 5842 5840 5839 5838 5838 5837 5836 5836 5835 5834 5833 5833 5832 5831 5830 5828 5827 5826 5825 5824 5824 5823 5822 5820
5857 5855 5854 5853 5852 5850 5850 5849 5847 5847 5846 5845 5843 5842 5840 5839 5838 5836 5835 5834 5833 5832 5831 5830 5830 5829 5828 5827 5827 5826 5825 5824 5823 5822 5821 5820 5819 5817 5816 5815 5814 5813 5812
5848 5847 5846 5845 5843 5842 5841 5840 5839 5838 5837 5836 5835 5834 5832 5831 5830 5829 5827 5826 5825 5824 5823 5822 5822 5821 5820 5819 5819 5818 5817 5816 5815 5814 5813 5812 5810 5809 5808 5807 5806 5805 5803
5840 5838 5837 5835 5834 5833 5832 5831 5830 5829 5828 5827 5826 5825 5823 5822 5821 5820 5818 5817 5816 5816 5815 5815 5814 5813 5812 5811 5810 5809 5808 5808 5807 5806 5804 5803 5802 5801 5799 5798 5797 5796 5794
5830 5828 5827 5826 5824 5823 5822 5821 5820 5820 5819 5818 5817 5815 5814 5813 5812 5811 5810 5809 5808 5807 5806 5805 5805 5804 5803 5802 5801 5800 5799 5798 5798 5796 5795 5795 5793 5792 5791 5789 5788 5786 5785
5820 5818 5817 5815 5814 5813 5811 5810 5810 5809 5808 5807 5807 5805 5804 5803 5802 5801 5801 5800 5799 5798 5797 5796 5795 5794 5793 5792 5791 5791 5790 5789 5788 5787 5786 5785 5784 5783 5781 5780 5778 5777 5775
5809 5807 5806 5805 5803 5802 5800 5799 5798 5797 5797 5797 5796 5795 5794 5793 5792 5791 5790 5790 5789 5789 5787 5786 5786 5785 5784 5783 5781 5780 5780 5779 5778 5777 5776 5775 5774 5773 5772 5771 5769 5767 5766